Weather History for KEAT - August, 2012

Change the Weather History Date:

Saturday, August 25, 2012

  Actual Average Record
Temperature  
Mean Temperature 58 °F 64 °F  
Max Temperature 78 °F 81 °F - ()
Min Temperature 38 °F 48 °F - ()
Degree Days  
Heating Degree Days 7 3  
Month to date heating degree days 23 37  
Since 1 June heating degree days 302 276  
Since 1 July heating degree days 61 89  
Cooling Degree Days 0 2  
Month to date cooling degree days 129 93  
Year to date cooling degree days 285 222  
Since 1 June cooling degree days 285 217  
Growing Degree Days 18 (Base 50)    
Moisture  
Dew Point 37 °F    
Average Humidity 35    
Maximum Humidity 59    
Minimum Humidity 16    
Precipitation  
Precipitation 0.00 in 0.02 in - ()
Month to date precipitation 0.21 0.36  
Year to date precipitation 15.20 10.31  
Snow  
Snow 0.00 in 0.00 in - ()
Month to date snowfall 0.0 0.0  
Since 1 June snowfall 0.0 0.0  
Since 1 July snowfall 0.0 0.0  
Snow Depth 0.00 in    
Sea Level Pressure  
Sea Level Pressure 29.88 in    
Wind  
Wind Speed 4 mph (West)    
Max Wind Speed 8 mph    
Max Gust Speed -    
Visibility 10 miles    
Events      
T = Trace of Precipitation, MM = Missing Value Source: NWS Daily Summary

Daily Weather History Graph

Daily Weather History Graph

Search for Another Location

Airport or City:

Trip Planner

Search our weather history database for the weather conditions in past years. The results will help you decide how hot, cold, wet, or windy it might be!

Date:

Astronomy

Aug. 25, 2012 Rise Set
Actual Time 6:11 AM PDT 7:53 PM PDT
Civil Twilight 5:38 AM PDT 8:25 PM PDT
Nautical Twilight 4:59 AM PDT 9:05 PM PDT
Astronomical Twilight 4:15 AM PDT 9:48 PM PDT
Moon 3:45 PM PDT (8/25) No Moon Set
Length of Visible Light 14h 46m
Length of Day
13h 42m
Waxing Gibbous, 64% of the Moon is Illuminated
Aug 25
Waxing Gibbous
Aug 31
Full
Sep 8
Last Quarter
Sep 15
New
Sep 22
First Quarter

Hourly Weather History & Observations

Time (PDT) Temp. Dew Point Humidity Pressure Visibility Wind Dir Wind Speed Gust Speed Precip Events Conditions
12:55 AM 60.1 °F 37.0 °F 42% 29.97 in 10.0 mi NNE 4.6 mph - N/A   Clear
1:55 AM 60.1 °F 39.0 °F 46% 29.97 in 10.0 mi NW 3.5 mph - N/A   Clear
2:55 AM 59.0 °F 39.9 °F 49% 29.96 in 10.0 mi NNW 3.5 mph - N/A   Clear
4:55 AM 54.0 °F 39.0 °F 57% 29.97 in 10.0 mi West 5.8 mph - N/A   Clear
5:55 AM 53.1 °F 39.0 °F 59% 29.98 in 10.0 mi NW 3.5 mph - N/A   Clear
6:55 AM 53.1 °F 37.9 °F 57% 29.99 in 10.0 mi NNW 3.5 mph - N/A   Clear
7:55 AM 57.0 °F 39.9 °F 53% 29.99 in 10.0 mi West 5.8 mph - N/A   Clear
8:55 AM 59.0 °F 39.9 °F 49% 29.99 in 10.0 mi WSW 6.9 mph - N/A   Clear
9:55 AM 63.0 °F 41.0 °F 45% 29.98 in 10.0 mi Calm Calm - N/A   Clear
10:55 AM 68.0 °F 37.0 °F 32% 29.95 in 10.0 mi Calm Calm - N/A   Clear
12:55 PM 75.9 °F 35.1 °F 23% 29.89 in 10.0 mi SSW 5.8 mph - N/A   Clear
1:55 PM 80.1 °F 34.0 °F 19% 29.86 in 10.0 mi Variable 3.5 mph - N/A   Clear
2:55 PM 81.0 °F 32.0 °F 17% 29.83 in 10.0 mi SE 6.9 mph - N/A   Clear
3:55 PM 82.0 °F 32.0 °F 16% 29.81 in 10.0 mi SSE 8.1 mph - N/A   Clear
4:55 PM 82.9 °F 33.1 °F 17% 29.78 in 10.0 mi SSE 5.8 mph - N/A   Clear
5:55 PM 82.0 °F 34.0 °F 18% 29.77 in 10.0 mi SE 3.5 mph - N/A   Clear
6:55 PM 80.1 °F 39.0 °F 23% 29.76 in 10.0 mi ESE 3.5 mph - N/A   Clear
7:55 PM 75.9 °F 35.1 °F 23% 29.76 in 10.0 mi ESE 3.5 mph - N/A   Clear
9:55 PM 68.0 °F 35.1 °F 30% 29.78 in 10.0 mi NNW 3.5 mph - N/A   Clear
10:55 PM 69.1 °F 36.0 °F 30% 29.78 in 10.0 mi Calm Calm - N/A   Clear
11:55 PM 66.0 °F 36.0 °F 33% 29.78 in 10.0 mi Calm Calm - N/A   Clear